Wind_Speed
24 23 22 22 21 21 20 19 19 18 17 15 13 13 13 13 13 13 13 13 14 14 14 14 14 14 13 13 13 11 11 10 9 9 12 10 6 8 7 7 11 14 14 13 14 12 11 12 12 12 10 8 8 7 7 4 4 5 5 6 5 5 6 8 9 7 6 8 10 10 11 11 10 11 8 10 10 6 8 7 11 10 3 10 15 21 26 25
25 23 23 22 21 21 20 20 19 17 15 12 12 12 12 13 13 13 13 13 14 14 14 13 13 13 13 13 12 11 10 9 11 14 18 17 11 10 9 8 9 14 17 15 15 13 11 10 10 10 8 7 7 6 3 2 4 5 5 6 7 6 10 8 10 8 8 10 11 11 12 11 10 10 8 10 10 8 9 5 8 9 4 12 18 22 24 24
26 24 24 23 22 21 20 19 18 15 13 12 12 12 13 13 13 13 13 13 14 14 13 13 13 12 12 11 11 9 9 9 11 10 12 16 17 14 12 11 11 16 19 17 14 12 10 9 9 9 8 7 7 6 3 1 3 4 4 6 7 11 12 8 9 10 11 12 12 12 11 11 11 10 8 9 10 9 11 7 5 5 11 14 16 18 19 20
27 26 25 24 23 22 20 18 16 14 13 13 14 13 13 13 13 13 13 13 13 13 14 13 12 11 11 10 8 6 6 9 4 2 1 6 10 11 10 10 14 18 20 18 12 10 11 10 8 8 8 8 8 8 6 4 3 2 3 7 9 12 10 9 10 10 11 12 12 13 12 13 11 8 8 9 10 9 10 9 8 7 13 16 14 15 15 15
29 27 26 25 23 21 19 17 15 14 15 15 16 15 14 14 14 14 13 13 13 13 14 12 12 11 10 8 4 2 5 4 3 6 3 2 4 4 6 11 16 18 19 18 14 10 12 11 9 8 7 8 8 8 8 7 5 4 6 10 11 12 12 11 11 11 12 12 13 14 12 11 10 9 9 10 9 7 9 11 11 6 7 16 15 14 14 14
30 29 27 24 22 21 19 18 17 16 17 18 18 17 16 16 15 15 13 12 13 13 13 12 10 11 9 5 1 2 5 1 5 4 4 4 5 5 8 12 15 17 16 16 16 11 10 10 9 8 7 8 9 10 8 6 5 6 7 10 12 13 13 10 11 13 12 13 14 12 11 10 9 10 9 10 10 7 8 7 7 8 0 14 17 13 14 16
31 30 27 24 22 21 20 18 18 19 20 20 20 19 18 18 16 14 12 11 11 11 12 11 10 10 6 2 2 4 8 1 5 4 5 6 6 8 11 11 13 15 13 14 14 10 8 9 9 8 8 9 10 11 9 6 8 9 9 11 13 13 12 10 12 14 14 15 15 12 10 10 10 9 8 9 10 9 6 4 5 7 5 7 15 15 13 15
32 31 28 24 22 21 19 19 20 22 23 23 21 19 17 16 14 11 10 9 9 10 11 10 8 8 4 4 2 6 6 2 6 4 6 9 9 11 12 10 12 13 12 15 13 10 7 9 10 8 8 9 10 12 11 9 9 10 12 12 11 12 13 12 13 15 15 14 13 11 11 11 10 10 11 11 9 8 5 3 6 7 8 6 11 17 14 12
34 32 28 25 23 21 19 20 23 25 26 25 21 16 12 10 9 7 6 6 7 9 8 8 7 6 6 5 6 6 1 6 4 3 9 12 11 13 13 11 12 13 12 13 12 10 7 8 9 8 9 11 12 13 13 11 8 10 14 15 14 15 16 15 15 15 15 12 10 12 13 11 10 11 11 11 8 4 4 6 10 11 10 7 7 13 12 10
35 32 29 26 25 23 20 21 25 27 27 24 16 9 6 6 7 5 3 3 4 6 5 6 5 6 8 6 7 3 5 5 4 5 11 12 12 15 15 11 12 13 13 11 10 9 8 9 9 8 9 10 11 12 12 11 10 12 15 15 17 18 16 16 16 16 15 10 10 12 12 10 11 11 7 6 4 1 5 10 10 10 7 6 6 7 9 7
37 33 30 27 26 25 23 22 25 27 26 21 11 6 6 8 9 8 6 3 1 3 3 4 4 7 7 7 7 1 4 3 5 9 12 12 13 14 14 12 11 11 12 10 9 8 10 12 11 9 7 8 10 11 11 12 11 12 15 16 18 19 17 17 17 16 11 7 9 10 9 12 12 10 9 8 2 2 9 10 8 11 9 5 6 7 9 7
38 34 30 27 26 26 25 25 25 26 24 17 9 6 6 9 10 10 9 6 4 1 0 1 5 6 4 8 5 2 3 2 5 9 11 11 12 12 12 12 10 10 11 10 8 7 10 12 12 10 8 9 11 10 10 13 14 13 15 16 18 19 19 19 18 13 7 3 5 6 7 13 11 10 12 9 1 4 11 9 8 10 8 7 5 3 7 9
40 35 31 28 26 26 26 27 25 24 22 15 8 4 5 6 7 9 9 7 6 2 1 2 5 4 6 4 2 3 1 2 4 6 10 11 10 10 10 10 9 10 11 12 12 9 9 9 10 12 11 11 11 10 13 16 15 15 15 13 13 16 14 9 10 11 5 1 2 5 6 9 10 6 5 5 5 8 9 6 9 9 8 8 4 4 2 10
42 37 32 28 27 26 26 27 25 23 20 15 9 5 5 5 6 6 7 6 4 2 1 2 5 3 5 0 5 2 2 2 5 7 10 11 9 10 9 9 9 10 10 10 12 11 10 10 11 11 10 10 11 12 14 13 11 12 13 11 9 10 6 7 4 11 5 2 2 4 6 7 13 9 3 8 9 8 9 6 6 8 9 8 6 6 3 11
43 39 33 29 28 26 25 26 24 22 20 16 10 7 5 4 4 4 5 4 1 1 1 2 5 5 5 2 4 3 6 6 7 7 8 11 10 10 9 9 9 9 10 10 11 10 9 10 10 9 9 11 13 12 12 10 10 11 10 8 7 6 4 7 2 2 2 2 0 5 7 7 11 13 9 7 5 7 13 10 6 8 9 8 7 5 8 11
45 41 34 30 29 26 25 24 22 21 20 17 11 7 5 3 3 3 4 2 3 3 3 3 8 10 5 2 6 6 7 6 4 6 7 10 10 9 9 8 9 9 10 10 10 10 9 9 8 8 10 11 11 10 8 8 9 7 5 7 8 8 7 7 9 8 3 4 5 7 6 8 9 12 14 13 11 8 11 11 8 7 8 7 4 5 10 10
45 42 35 30 29 27 24 23 22 21 21 17 11 6 4 4 3 2 3 2 3 4 6 8 8 10 3 3 8 7 5 3 3 5 6 8 9 8 5 6 8 9 10 11 11 10 9 8 7 8 9 8 8 7 7 7 6 4 6 8 10 12 11 8 11 10 1 2 10 7 4 9 11 13 13 14 14 8 9 12 7 5 7 6 3 5 10 8
45 43 36 31 29 26 23 22 21 21 22 19 13 9 6 6 6 6 4 1 3 5 9 11 9 5 2 4 5 3 4 4 3 4 5 7 8 8 6 6 8 8 9 10 10 10 8 6 7 7 7 8 8 7 7 6 8 9 9 9 10 11 11 10 10 10 10 12 12 8 8 10 11 14 13 13 13 10 11 11 8 8 7 4 3 5 12 8
45 44 38 31 29 25 20 21 21 21 23 21 19 15 9 8 9 8 8 6 4 3 3 4 5 2 3 4 2 3 4 4 4 5 7 7 7 8 9 8 8 9 8 7 8 10 7 5 7 7 7 8 5 4 8 11 13 13 12 10 11 10 10 11 11 9 11 12 11 10 10 10 12 14 14 14 13 12 12 10 7 8 6 4 3 4 10 9
45 44 40 32 29 24 18 18 19 20 21 23 23 14 5 6 4 2 5 7 2 3 4 3 2 2 3 2 2 4 4 5 6 6 5 4 6 9 9 8 9 8 7 8 7 7 6 5 6 7 8 7 8 10 13 14 13 13 13 11 12 11 9 11 12 10 10 9 11 11 10 11 12 13 14 14 13 13 12 11 8 7 6 3 7 10 11 9
45 45 41 34 30 24 17 16 16 18 17 19 19 8 4 8 4 3 5 3 1 2 2 4 4 4 3 3 1 2 4 6 6 4 3 3 7 8 6 7 9 7 8 12 8 2 5 6 8 11 9 10 10 10 12 12 11 11 11 10 10 9 9 11 12 12 11 8 11 15 15 14 13 12 13 13 13 12 12 11 9 8 5 4 13 14 11 10
44 44 42 35 31 26 17 13 13 15 15 14 15 11 8 9 6 4 6 3 1 2 2 5 4 6 4 2 2 2 5 6 6 6 4 3 7 7 4 5 8 7 8 11 7 5 6 6 10 10 6 10 9 9 11 11 12 11 9 9 9 7 9 11 10 10 11 8 10 16 16 14 14 13 13 12 12 10 8 9 8 6 2 8 13 11 10 10
43 44 42 36 32 27 16 12 11 10 12 14 16 14 9 8 7 6 5 5 4 2 2 4 3 5 3 3 3 4 8 5 2 6 4 4 7 6 4 7 8 8 10 9 7 8 7 6 9 6 5 8 11 10 11 11 9 10 8 8 8 8 10 9 8 12 12 10 13 16 14 12 12 10 9 10 10 7 5 7 5 4 2 10 13 11 11 10
43 43 42 36 32 27 15 10 11 9 7 12 16 15 11 9 8 6 4 6 4 3 2 2 3 4 2 0 2 8 6 2 2 4 3 5 7 5 5 8 8 8 9 10 8 7 8 9 10 10 6 8 11 10 12 10 7 10 11 8 7 11 13 12 13 14 13 13 14 16 12 7 8 8 7 8 9 8 6 6 3 1 6 14 15 11 11 11
42 43 42 35 30 27 15 6 11 13 8 11 15 16 13 10 7 5 4 5 2 3 4 2 1 3 1 2 5 7 3 2 2 2 1 4 6 7 7 7 6 8 10 10 11 7 9 11 8 7 7 8 10 10 12 12 7 10 12 10 10 14 16 17 17 14 10 9 10 11 9 6 8 10 8 6 7 7 6 6 4 3 7 12 13 10 10 10
42 42 43 33 26 28 15 3 12 16 9 11 15 17 14 9 6 3 3 4 2 3 4 3 1 2 1 2 4 6 3 3 3 2 1 2 5 6 6 7 5 8 9 7 8 6 8 11 8 8 8 5 8 10 12 13 9 7 12 15 16 17 17 18 18 13 8 8 10 11 9 7 7 9 9 6 6 6 6 7 5 3 7 8 9 9 9 9
41 42 42 30 22 24 13 5 15 14 8 11 15 16 13 8 4 2 3 4 2 1 1 2 2 2 2 2 4 7 4 2 1 3 2 0 3 5 5 8 7 7 8 5 4 6 6 12 12 11 11 6 7 9 10 14 9 8 14 18 18 18 17 18 16 12 9 10 12 13 10 7 6 8 9 6 4 4 2 3 3 7 11 9 8 8 7 8
40 42 40 29 18 16 12 11 15 12 10 12 15 14 10 6 3 3 3 1 3 1 1 3 2 2 4 3 4 6 5 5 3 3 3 3 4 5 7 9 9 11 12 7 7 9 10 13 12 12 10 7 7 8 13 16 11 11 16 17 16 16 16 17 13 10 11 10 8 9 9 6 5 6 5 4 4 3 1 4 8 11 11 9 7 8 8 7
40 41 37 29 18 12 15 14 10 13 13 12 14 12 7 4 3 3 3 2 1 1 1 1 1 1 6 6 4 4 4 3 3 2 2 5 4 4 7 8 9 11 12 10 10 10 11 11 10 10 8 5 8 11 14 14 12 13 16 16 15 16 16 14 11 10 10 9 7 9 9 6 5 5 3 2 3 4 4 5 9 10 9 7 6 7 8 9
39 39 34 27 18 15 18 12 7 14 14 12 15 10 4 3 3 3 3 2 1 1 1 2 2 3 8 8 5 1 4 2 3 6 5 4 7 6 5 7 7 8 9 10 11 12 13 11 8 6 4 4 8 11 13 13 14 14 13 12 13 13 10 9 9 8 7 7 7 9 9 7 6 3 3 4 4 5 5 5 7 8 9 9 7 8 9 9
38 37 30 22 16 15 15 9 11 17 12 13 16 7 3 3 4 4 1 1 1 2 0 1 5 4 8 9 1 2 5 1 3 8 4 3 6 5 4 5 3 5 7 7 7 10 11 6 4 3 4 5 6 8 11 12 14 13 9 9 9 8 7 6 6 6 5 6 7 8 10 9 5 3 5 7 10 10 9 9 10 12 12 11 10 11 10 10
37 35 26 18 18 16 10 9 16 16 12 15 13 5 4 3 3 2 3 1 3 3 4 3 6 6 6 7 3 4 6 1 3 7 4 4 4 1 5 5 6 6 5 6 8 9 9 6 3 5 7 8 7 7 9 9 10 10 8 8 7 5 5 5 6 5 5 6 6 11 14 10 6 6 7 9 11 12 12 12 12 13 12 11 12 12 10 11
36 34 23 16 19 17 11 13 16 14 13 15 9 3 4 4 2 2 3 2 1 3 5 5 7 7 5 5 2 3 5 3 3 6 4 4 4 3 6 6 8 7 5 7 8 7 5 5 8 4 5 9 8 7 7 7 8 9 8 6 6 7 5 5 6 5 6 7 9 15 16 8 5 8 8 11 13 12 12 11 11 12 11 10 11 11 11 11
35 31 22 18 19 15 13 16 15 13 14 11 6 4 5 4 2 1 2 5 5 4 6 6 7 7 7 6 3 5 4 2 2 6 5 4 3 1 4 7 11 8 6 7 5 5 7 3 7 6 6 9 9 8 7 9 9 9 8 7 7 5 5 5 6 6 7 9 11 13 11 6 5 8 9 9 12 11 10 10 9 9 9 8 9 10 10 11
34 29 21 19 17 12 14 16 13 12 11 8 6 5 5 3 3 3 4 6 6 6 8 8 9 9 7 6 2 2 2 1 3 6 5 3 1 3 3 5 10 8 7 6 4 5 9 6 5 9 9 10 9 7 8 10 8 6 7 7 6 5 5 6 7 9 10 9 9 7 4 6 6 6 10 9 9 10 9 8 7 7 9 10 10 11 11 12
35 29 18 14 15 15 16 15 13 13 9 7 6 4 2 3 4 5 5 6 7 7 10 10 6 6 5 2 5 5 3 3 6 5 3 2 0 3 3 4 7 7 6 5 5 5 6 8 10 13 12 11 10 9 9 8 6 6 7 7 7 10 8 7 6 8 9 7 6 5 5 7 6 4 13 13 10 9 8 10 12 14 15 15 14 14 14 14
35 26 15 13 14 18 17 15 17 14 8 6 5 4 4 3 5 6 5 7 8 5 8 7 2 3 6 3 0 4 3 4 3 2 3 1 1 1 3 4 4 5 6 5 5 5 5 7 11 14 12 10 11 11 12 12 10 7 7 6 8 10 8 5 5 5 6 7 5 6 8 8 7 2 9 11 8 7 10 14 16 17 17 16 14 14 15 16
29 18 12 12 14 18 19 19 19 13 6 6 4 1 4 3 5 6 6 7 8 5 6 5 3 4 5 5 5 6 6 5 4 4 5 2 1 2 2 3 5 4 4 6 4 4 6 7 8 9 10 10 10 10 12 12 10 7 6 7 6 7 6 4 5 5 7 8 5 7 10 7 6 4 5 8 7 10 13 15 15 16 15 14 14 15 16 16
21 11 6 8 14 18 21 23 18 9 5 6 3 2 1 3 5 5 6 7 6 5 4 4 3 3 3 5 7 7 6 5 6 6 4 2 1 2 2 2 2 3 5 7 6 5 5 5 5 6 10 12 10 7 9 6 2 2 5 7 6 6 7 6 5 5 7 8 7 9 9 5 5 4 8 12 13 14 14 13 12 13 14 13 12 13 14 14
14 8 3 11 17 20 23 22 13 6 5 3 3 2 2 3 4 4 4 5 4 4 3 4 5 4 5 7 7 6 5 5 7 6 4 4 1 3 4 2 1 3 6 8 8 5 4 4 5 7 9 11 8 6 6 6 5 6 6 7 7 6 7 7 6 6 7 7 7 7 8 5 3 7 10 14 15 13 12 12 10 11 12 12 12 12 12 12
10 6 2 16 22 21 21 15 6 3 4 1 1 3 4 4 5 4 3 2 3 4 3 4 6 4 5 6 5 5 5 6 7 6 6 5 2 0 3 4 2 4 6 8 6 3 2 3 5 8 7 7 8 8 11 10 7 6 6 7 7 5 6 6 6 6 6 7 7 7 10 8 3 8 10 10 13 11 12 11 9 10 11 12 11 12 11 10
6 5 9 20 22 18 15 8 2 2 3 1 2 3 2 2 5 4 3 2 3 3 2 2 4 4 4 5 5 6 5 6 7 6 6 6 2 2 3 4 2 4 5 6 3 6 4 4 5 8 8 9 13 15 15 13 7 5 7 8 6 5 5 5 6 7 6 8 9 8 10 10 4 8 9 6 13 12 11 10 10 9 10 11 11 12 11 10
4 8 16 19 15 12 11 6 3 3 2 2 4 3 1 1 4 4 3 2 2 3 2 3 4 3 3 3 3 6 5 4 8 8 7 8 2 7 6 4 4 5 5 5 1 5 2 4 5 7 8 9 14 15 12 10 6 5 6 6 5 5 6 6 7 8 7 9 9 7 10 10 5 7 9 2 8 7 9 11 10 10 9 10 11 12 11 11
6 8 12 12 9 9 8 5 4 5 1 1 4 4 2 3 4 4 5 2 1 3 4 5 5 3 3 3 3 6 5 3 6 8 7 8 2 8 5 3 3 4 4 1 3 4 2 4 4 7 7 6 8 8 4 5 3 4 6 7 8 9 11 10 9 7 7 11 12 10 10 9 6 7 11 10 9 11 11 10 10 9 10 11 11 11 12 12
7 6 6 8 7 6 5 4 4 6 5 4 5 6 5 4 4 3 5 5 3 4 5 5 5 4 4 5 5 6 6 6 6 7 8 8 1 6 4 3 1 3 2 6 5 4 3 5 4 5 7 6 5 5 3 3 4 6 8 11 12 12 13 11 8 7 8 11 13 11 9 11 12 12 14 15 16 18 18 13 9 9 11 12 12 11 11 12
5 4 5 6 4 4 4 4 4 6 6 4 4 7 7 5 4 5 4 6 5 4 6 6 6 6 6 7 7 7 8 9 8 7 7 8 4 3 5 4 3 2 8 8 2 3 4 5 7 9 9 8 9 9 10 11 10 11 13 15 14 13 14 11 7 8 9 10 12 13 13 15 15 15 16 17 17 17 17 15 14 13 12 13 14 13 11 11
3 5 6 4 4 6 5 5 5 5 4 3 3 6 8 8 7 5 6 3 4 4 6 7 7 8 7 7 7 7 8 10 10 10 9 9 9 5 6 5 2 6 10 4 3 3 4 6 8 11 13 12 14 15 15 14 14 15 16 16 15 15 15 12 10 11 11 10 12 13 15 17 16 16 18 18 18 17 17 15 13 13 13 13 14 15 15 14
5 5 6 4 3 6 6 7 8 6 6 6 5 7 9 10 10 6 5 4 5 4 4 5 8 9 9 8 7 6 7 8 9 10 9 9 9 8 6 6 4 7 8 5 5 5 4 6 8 11 14 15 15 16 16 14 14 16 17 18 18 17 16 14 15 15 13 12 13 15 19 20 17 17 18 18 16 16 17 16 14 14 16 15 15 16 17 17
5 5 6 5 4 7 9 12 13 11 10 9 7 8 10 11 11 10 7 6 6 6 6 7 8 9 10 9 7 6 7 7 7 8 8 8 8 7 5 8 6 5 5 5 4 3 2 5 7 10 13 14 15 16 17 17 17 17 18 18 17 15 15 16 16 17 17 17 18 20 22 21 15 14 16 15 14 13 14 14 14 16 17 16 15 16 16 16
6 6 6 6 6 7 8 10 11 11 10 8 8 9 10 12 13 11 10 9 8 7 8 9 10 10 10 10 8 8 8 8 9 9 7 7 6 5 5 6 6 5 5 5 4 3 2 4 6 8 10 12 14 16 17 17 17 17 16 16 16 16 17 18 16 15 15 16 17 19 19 15 12 13 14 13 13 14 15 15 16 16 16 16 16 17 18 17
12 9 4 5 7 7 7 8 9 9 8 7 8 9 10 12 13 12 12 12 11 9 9 10 10 8 9 11 11 11 9 9 11 11 8 7 6 6 6 6 5 6 7 5 3 3 4 5 7 7 8 10 11 13 16 15 14 16 17 17 17 16 14 13 11 10 11 12 14 15 14 11 10 12 14 15 15 16 17 17 16 15 16 17 17 19 19 19
14 10 5 5 7 7 7 9 9 9 8 8 10 12 13 14 14 13 11 9 10 11 10 10 9 6 8 11 9 7 5 5 6 6 5 6 8 8 8 10 10 9 8 6 5 5 5 6 6 6 8 9 10 12 14 12 11 12 10 9 9 9 9 10 9 10 11 11 10 10 10 11 13 14 15 16 17 16 16 16 15 16 18 18 18 19 20 20
Wind_Direction
355 351 348 346 343 340 338 336 333 332 329 329 327 324 320 316 313 307 304 300 298 297 296 299 297 302 306 310 319 318 317 310 293 260 240 247 243 248 242 222 231 218 207 203 213 221 213 226 233 238 242 241 244 248 257 233 252 280 266 278 281 298 14 11 336 357 344 320 335 340 322 323 325 325 332 308 311 322 314 314 286 280 178 147 136 131 139 146
356 352 350 347 345 342 339 337 336 336 336 338 337 333 329 323 319 313 308 302 297 295 294 295 295 300 303 311 319 315 317 298 267 259 251 251 255 261 251 237 236 207 197 205 214 216 213 222 222 228 237 245 250 234 240 211 225 255 270 283 273 320 11 355 322 342 342 332 333 322 319 328 317 312 306 293 321 332 303 285 271 296 57 115 122 127 139 148
359 355 353 350 347 345 342 341 340 342 345 345 342 336 331 326 322 316 310 305 298 294 291 290 292 296 301 311 315 314 319 292 262 256 253 248 245 251 259 244 217 194 195 205 210 213 224 229 219 229 244 251 255 243 251 225 208 232 260 278 294 334 348 325 323 343 336 329 322 318 319 307 293 295 297 305 317 300 283 273 284 5 83 106 120 133 145 155
3 359 356 353 351 349 347 347 347 350 348 344 340 334 330 325 319 314 308 303 296 292 288 287 289 291 299 308 310 318 302 280 268 102 187 237 234 241 249 221 197 191 199 216 225 222 235 243 228 231 252 262 259 251 258 259 255 284 293 295 307 317 311 311 335 338 324 322 315 310 302 294 303 315 308 301 294 284 286 300 339 39 111 131 139 145 157 164
6 3 359 357 357 357 356 355 354 351 344 340 335 329 325 319 314 308 302 296 290 287 283 282 284 287 298 300 300 310 277 272 94 90 80 152 188 212 209 190 189 193 204 232 251 240 239 252 245 234 248 269 273 262 251 246 255 279 286 288 296 299 299 316 328 318 315 315 305 301 303 313 324 312 296 288 286 300 310 322 339 344 129 140 149 159 166 171
8 4 2 2 4 3 360 357 353 346 339 334 328 324 320 315 311 302 296 289 282 279 276 278 281 286 293 286 235 230 265 341 96 119 94 113 136 149 176 178 187 198 211 243 258 246 239 251 247 237 240 253 269 277 274 271 273 278 288 291 292 291 293 307 311 307 311 306 300 304 311 315 307 297 293 290 289 293 299 313 323 315 149 148 157 167 174 178
8 5 5 6 5 2 359 356 349 342 334 328 323 318 315 314 310 301 293 282 275 271 270 272 277 283 282 222 151 217 253 328 91 123 116 130 141 148 166 174 187 201 220 249 255 243 236 245 244 244 249 254 263 272 286 300 294 289 287 284 283 282 286 301 303 301 305 299 293 295 299 294 289 293 290 284 286 286 291 304 294 293 281 185 159 163 182 185
8 6 7 6 3 359 357 355 349 343 334 327 322 314 313 314 311 304 290 275 268 263 264 268 273 273 220 161 210 236 241 86 96 148 153 142 145 154 162 174 193 203 226 249 253 244 237 245 248 249 254 265 275 286 309 317 296 284 284 292 299 298 298 301 296 296 296 289 288 292 289 285 285 286 284 283 284 283 291 298 275 256 261 252 162 164 184 189
7 6 6 4 0 357 353 352 351 346 339 331 324 318 319 321 321 315 295 274 264 261 262 264 264 245 187 181 258 259 149 89 93 174 162 150 151 160 165 179 197 207 228 245 249 245 243 250 249 255 269 282 294 302 313 311 298 297 302 308 307 300 298 296 291 288 284 280 291 294 284 282 283 278 277 276 265 271 294 269 255 241 230 234 176 168 176 183
7 5 4 2 359 357 350 348 350 348 344 339 336 338 347 358 4 3 344 301 268 266 261 259 249 206 182 202 259 269 96 101 110 138 155 156 155 164 178 188 193 211 237 246 245 245 252 259 265 283 295 299 299 300 300 293 298 306 304 303 296 292 291 288 282 275 272 279 287 281 281 287 284 284 283 263 231 169 284 269 269 274 247 205 199 186 168 171
6 4 2 360 359 360 354 348 351 352 352 352 0 26 39 41 39 40 37 29 332 288 267 257 217 186 192 234 264 338 95 110 121 144 161 160 163 174 189 197 193 214 243 250 239 252 267 273 292 305 303 304 296 290 287 291 304 307 305 301 291 286 282 275 272 271 265 262 282 285 290 287 277 276 270 258 254 337 284 277 279 286 286 260 230 190 155 147
6 3 0 358 356 358 358 355 354 356 360 4 22 48 45 42 39 40 40 41 36 5 240 214 183 171 240 258 264 63 107 148 122 148 166 166 175 183 195 206 209 227 248 262 255 258 270 274 292 290 285 301 299 293 299 311 311 301 296 292 286 282 277 266 251 255 265 257 307 319 298 285 269 246 248 256 261 276 278 286 282 269 272 280 266 188 157 144
6 3 359 356 353 352 356 359 359 1 5 7 16 21 16 18 17 25 30 35 35 24 87 140 161 168 275 271 92 81 141 151 133 151 169 174 184 190 206 222 233 247 255 279 290 297 297 288 288 281 284 290 287 295 304 305 297 288 282 277 282 280 284 288 223 216 259 304 335 302 286 295 293 260 229 264 250 239 259 288 299 297 301 305 314 299 163 122
7 4 359 356 353 349 352 359 2 2 5 3 358 338 332 345 345 356 7 16 23 15 99 141 153 184 270 323 81 128 178 147 168 169 174 181 193 197 211 235 247 258 260 273 285 293 299 294 285 276 278 275 276 288 287 284 278 278 276 265 269 264 297 0 162 177 196 159 133 280 280 291 300 301 227 231 243 259 287 301 305 308 311 309 309 310 64 102
7 4 0 356 353 351 351 359 2 2 2 358 351 332 309 312 321 321 331 342 329 274 175 176 181 214 260 167 99 123 163 182 191 173 172 185 202 206 207 230 242 251 260 265 270 275 277 277 276 270 269 264 263 268 268 276 273 261 261 270 285 278 317 352 327 186 162 143 279 293 294 283 287 302 298 280 297 307 301 303 300 293 291 287 300 354 74 95
7 5 2 357 354 353 353 359 4 3 1 357 351 347 330 308 300 303 317 281 218 197 198 222 198 212 277 78 131 149 170 182 169 156 176 190 209 222 205 215 241 245 250 259 262 266 264 261 263 262 266 264 263 269 268 273 273 262 277 305 319 325 338 345 327 327 93 132 252 245 269 297 298 309 313 307 300 282 280 287 284 284 298 301 318 54 83 93
7 5 3 359 357 356 355 1 7 6 4 358 347 343 337 319 300 300 318 242 209 197 228 263 234 216 268 87 147 157 152 139 144 168 188 203 228 254 229 207 236 242 242 249 250 255 256 251 254 254 252 250 255 267 267 273 294 331 336 326 329 331 327 319 316 321 18 247 276 256 257 289 292 293 288 284 286 286 283 288 296 311 321 324 320 79 93 98
5 5 4 1 359 358 358 4 9 9 5 1 351 334 310 292 285 279 284 235 190 230 249 262 266 250 197 146 159 132 116 139 177 194 194 211 235 260 260 235 242 250 247 246 239 238 241 236 249 264 259 245 240 245 264 311 345 348 340 328 321 318 311 304 305 313 313 301 302 311 299 286 288 292 292 296 303 302 290 293 316 315 299 292 285 107 103 100
4 4 3 2 1 359 360 5 11 11 7 9 0 336 307 288 280 263 245 211 194 252 266 232 242 274 96 112 103 88 108 151 187 207 204 208 221 236 250 249 251 258 262 261 230 218 228 245 249 262 270 262 265 303 317 337 345 333 323 310 302 304 301 294 287 297 322 322 311 301 298 301 303 302 301 299 293 285 281 286 292 291 289 306 324 100 107 109
3 2 1 1 1 359 357 3 12 14 11 13 2 333 307 321 292 224 232 218 230 344 40 47 345 53 91 80 67 106 128 177 200 207 194 195 223 235 238 238 251 252 255 272 251 203 218 268 278 275 290 316 357 358 335 332 330 318 310 300 298 298 291 293 298 315 337 325 301 302 311 304 294 294 294 292 292 288 285 280 272 278 289 349 48 73 85 91
1 1 360 359 360 357 352 355 9 17 15 15 9 3 39 2 345 31 332 249 101 7 88 73 52 65 51 10 0 175 178 196 202 171 138 191 236 240 211 217 252 247 233 252 262 217 226 267 281 273 304 357 5 344 323 316 308 299 296 291 285 285 295 305 308 320 337 331 312 319 323 308 294 295 295 293 292 284 280 281 275 272 271 73 72 74 76 72
-0 360 358 357 358 357 347 343 1 17 19 21 23 33 41 10 349 344 323 295 328 268 139 105 117 93 79 112 109 254 247 230 190 154 146 231 241 237 196 213 253 270 266 256 243 242 246 259 270 272 346 356 327 313 308 302 292 279 273 276 275 287 304 300 303 329 343 342 315 310 311 301 292 287 281 281 287 281 274 284 281 273 278 82 78 72 69 65
359 358 357 356 355 356 345 337 350 1 13 26 30 25 15 3 343 321 295 282 277 225 99 64 72 73 100 156 123 259 267 269 166 121 111 254 250 251 249 252 268 286 290 278 254 263 277 290 297 320 17 325 306 307 302 292 283 278 279 284 293 313 314 306 334 348 332 308 292 291 286 281 286 282 275 289 309 309 280 284 289 288 32 81 79 69 66 62
358 356 357 355 353 358 345 332 353 345 359 28 27 15 358 351 343 332 305 270 246 150 100 34 36 54 44 0 276 269 281 341 351 61 84 254 273 299 284 277 287 281 266 278 301 304 289 301 333 350 347 313 310 308 299 291 291 303 302 289 299 322 324 319 327 328 309 289 286 290 286 288 304 297 294 312 319 314 293 285 293 12 86 87 81 70 68 64
357 355 356 354 353 358 346 331 4 353 3 31 15 359 348 346 343 338 309 263 208 132 158 190 30 61 29 255 250 280 307 175 235 43 70 280 306 316 300 289 290 279 272 297 326 317 280 295 329 326 306 305 304 299 295 297 309 311 307 319 335 331 322 313 310 308 299 289 299 309 307 306 306 297 298 301 289 300 321 321 323 31 88 98 93 83 74 64
356 355 355 354 352 355 358 15 349 341 2 26 1 346 343 343 333 330 295 256 163 124 167 190 322 66 8 271 269 304 299 183 145 104 232 303 301 285 294 296 263 261 283 320 323 287 274 288 286 288 297 297 295 295 299 313 329 308 314 334 333 319 308 303 305 304 299 300 301 298 290 293 304 302 306 302 284 302 335 326 315 47 79 86 79 75 77 74
355 355 352 352 354 353 1 352 330 339 10 3 349 340 339 339 319 304 275 248 121 39 180 109 12 353 314 326 306 289 299 5 145 177 190 351 293 265 271 291 279 277 311 350 299 285 301 294 295 321 335 326 298 300 323 338 332 298 313 320 311 306 305 302 304 300 288 287 284 277 277 297 309 302 308 315 306 300 313 320 351 63 67 63 45 34 49 75
353 354 350 350 354 349 345 327 326 354 10 345 343 338 337 339 297 266 268 283 78 332 310 84 48 312 283 296 290 281 326 340 271 181 170 220 270 271 260 280 300 311 319 321 293 300 312 304 310 326 324 311 309 327 342 336 314 299 307 303 298 298 290 284 280 271 268 267 276 289 292 296 299 307 337 356 329 324 45 75 66 59 56 58 40 18 18 44
351 353 349 345 353 354 337 319 315 352 358 343 342 336 327 324 283 246 253 300 69 206 347 36 190 253 289 278 231 264 325 314 296 356 286 238 206 239 276 292 304 306 301 291 282 285 287 287 299 308 296 306 340 344 332 314 294 291 291 286 286 278 272 276 274 274 283 282 291 300 291 286 298 314 355 7 319 329 6 62 74 68 65 62 41 23 17 24
349 351 348 343 350 353 334 309 302 344 349 340 340 334 304 293 255 237 251 293 17 100 91 312 326 342 313 291 192 205 312 263 326 319 279 235 193 206 299 303 290 294 286 275 266 270 274 257 253 299 321 337 345 331 309 298 299 300 290 287 291 286 288 296 291 293 297 292 293 290 289 296 293 299 338 5 31 6 7 58 69 57 58 58 44 36 34 32
347 349 348 341 338 339 331 318 333 340 337 333 335 322 271 267 228 259 317 148 296 7 55 323 357 348 322 314 293 19 324 210 342 309 273 243 212 197 342 335 325 306 290 283 282 298 299 261 191 94 42 357 332 316 308 311 324 328 317 306 306 309 312 299 299 314 298 288 300 312 333 340 315 329 21 43 54 39 32 50 53 47 45 46 47 43 42 44
346 347 345 336 327 324 314 313 328 329 328 330 322 287 267 263 228 294 27 177 249 5 13 347 347 340 333 312 292 359 328 261 5 321 313 319 280 67 23 2 357 320 309 330 327 326 310 302 10 101 90 28 336 315 324 325 337 336 317 317 320 308 313 313 313 316 288 285 320 336 344 347 320 331 27 62 70 62 58 53 50 52 45 41 45 39 38 44
344 345 340 333 323 313 298 311 321 323 329 328 309 262 277 279 280 334 9 24 356 10 342 320 324 321 311 295 304 9 307 272 353 334 334 307 279 89 82 50 5 327 330 334 320 328 304 321 1 8 70 33 340 319 336 332 335 322 305 319 317 304 321 322 303 300 289 294 327 335 333 334 313 321 6 60 76 73 72 65 56 54 47 42 43 36 32 37
342 343 337 329 319 306 309 323 324 321 324 318 296 267 275 284 24 345 327 31 28 337 322 321 315 294 262 267 350 14 314 250 332 316 311 276 259 108 97 60 27 351 329 320 320 343 308 311 43 18 355 354 336 336 344 331 317 300 302 307 296 318 348 316 306 315 308 305 316 323 323 321 314 326 357 74 94 78 71 69 61 59 53 44 42 37 27 25
340 343 334 323 321 324 329 327 321 321 320 310 295 280 279 317 29 10 352 5 350 334 330 315 298 285 254 221 182 47 2 349 323 305 289 262 331 12 356 30 29 7 341 332 347 344 298 284 34 23 346 328 333 348 341 329 310 301 329 311 297 353 353 303 301 302 299 303 304 300 293 288 295 6 40 69 88 73 65 58 43 43 39 29 25 21 16 16
338 343 336 317 326 339 334 327 326 324 312 298 301 302 324 21 16 4 4 338 328 336 324 308 283 288 297 210 169 141 125 291 304 308 285 226 52 26 35 44 22 6 6 352 331 327 298 291 332 348 337 326 337 341 326 316 301 314 322 300 322 347 324 295 295 294 293 289 287 289 281 284 289 46 63 57 56 56 44 36 37 32 29 28 25 18 16 18
335 337 324 303 324 340 333 331 332 321 300 291 302 318 339 29 24 6 10 339 326 324 313 315 14 331 324 324 249 89 56 310 303 312 289 223 151 26 55 82 48 12 14 1 321 321 322 301 312 325 322 325 337 328 306 284 262 267 286 300 337 329 295 281 286 288 291 279 280 290 288 302 308 335 72 62 56 49 30 36 44 37 32 32 26 19 17 16
326 315 297 295 328 340 331 327 326 316 296 285 256 236 319 5 37 14 8 349 323 311 308 316 20 2 333 325 335 5 1 330 340 337 308 288 96 358 8 83 83 60 19 355 322 315 323 300 297 308 309 325 339 320 298 279 246 230 272 307 324 301 285 290 285 289 294 287 286 282 280 290 290 287 55 51 49 52 41 41 42 35 34 29 20 16 13 12
315 292 294 341 346 339 330 324 318 301 273 279 259 152 331 10 51 27 3 351 323 314 322 328 358 358 330 327 327 335 340 330 331 332 320 319 40 57 29 7 45 63 29 345 308 294 306 290 285 301 313 328 331 295 286 297 286 277 305 308 298 292 297 288 277 285 290 293 300 295 292 283 267 310 35 52 55 53 47 42 36 34 32 25 19 15 8 7
314 288 322 16 354 336 332 320 301 276 265 280 325 356 4 6 26 35 21 4 331 306 314 341 337 319 323 329 322 328 342 324 313 307 297 294 252 104 69 42 326 10 1 319 291 283 279 265 278 298 314 318 297 269 292 317 324 312 306 304 299 299 299 290 284 284 282 286 292 296 297 286 293 343 23 60 67 58 52 46 31 26 23 18 17 12 6 5
310 275 337 11 352 337 334 315 277 295 295 224 19 339 15 358 320 337 15 354 300 277 282 324 316 307 317 313 314 344 341 304 295 291 285 291 284 47 57 70 21 349 339 301 295 347 317 280 294 297 301 294 278 289 303 300 308 315 305 297 292 288 292 291 287 285 287 290 290 292 287 280 322 346 355 52 72 61 53 45 29 18 13 9 9 4 2 2
285 272 317 340 335 330 330 306 253 313 288 347 347 313 16 333 283 315 333 281 267 259 246 288 299 307 302 291 313 334 320 296 290 286 281 288 313 95 105 88 22 335 323 296 332 52 9 292 282 278 273 273 277 280 279 277 289 304 285 277 274 280 291 288 288 299 302 294 295 295 280 277 318 331 329 60 92 81 61 47 27 15 9 4 359 355 353 349
291 305 308 314 316 322 320 292 282 278 211 28 323 264 193 280 280 303 295 275 300 291 282 292 292 285 278 290 312 307 307 297 280 275 274 286 356 102 113 82 19 327 308 287 324 62 11 273 268 277 275 276 278 274 258 243 237 245 267 277 280 302 319 314 308 312 303 287 288 281 268 273 306 317 313 26 108 96 70 58 30 3 360 355 345 343 340 335
310 297 292 290 287 303 298 268 287 293 256 332 284 257 230 252 268 284 289 298 305 288 289 286 282 266 256 277 278 285 300 291 276 280 284 293 50 116 130 78 46 310 300 330 13 27 342 281 299 302 295 291 288 282 240 199 223 286 314 312 301 311 320 315 308 305 288 278 277 270 264 275 294 300 301 305 308 320 347 28 29 359 345 338 333 334 332 329
304 281 278 273 252 267 290 296 309 296 285 280 281 285 268 234 214 233 285 292 263 276 287 273 276 276 266 271 268 272 273 261 273 294 296 295 209 145 145 90 64 284 43 65 31 0 295 276 286 281 282 292 294 300 325 331 314 309 309 305 304 309 311 306 301 287 272 275 275 268 270 282 290 298 304 309 316 319 324 340 351 342 339 335 328 325 326 328
313 299 298 292 263 264 272 267 262 270 286 298 295 289 274 256 228 196 225 273 259 255 271 268 282 284 268 263 261 263 265 259 258 266 278 286 279 167 142 155 238 167 107 92 43 314 278 258 254 255 261 273 279 290 311 316 305 296 295 296 297 298 297 294 287 273 275 286 278 270 279 288 294 304 306 305 309 312 315 322 325 329 340 337 322 314 319 326
289 290 304 331 324 299 269 244 239 245 283 321 304 286 275 276 278 209 172 227 265 251 260 263 265 266 262 260 261 264 270 266 260 261 266 270 279 267 190 207 260 133 132 148 209 226 262 254 256 263 264 271 280 286 294 294 286 285 288 289 288 288 286 278 269 270 278 282 272 275 290 293 293 299 300 302 311 315 315 318 324 330 328 317 308 311 318 320
280 294 320 352 308 290 291 304 312 303 294 293 280 276 273 272 281 263 194 210 239 234 247 255 248 252 256 254 255 261 267 271 269 270 274 270 277 276 246 274 298 146 160 253 228 194 263 269 272 281 278 280 282 281 284 283 280 281 281 280 279 276 272 267 265 269 272 271 275 287 292 287 289 300 307 314 320 318 317 322 329 324 309 302 307 313 314 312
293 290 308 318 286 284 294 308 319 311 292 287 278 271 272 267 269 270 258 244 234 227 238 249 250 259 263 255 249 249 254 268 274 275 282 282 284 291 288 297 287 184 191 266 230 179 277 268 276 287 284 283 283 280 281 277 273 273 271 270 271 270 269 268 269 272 272 271 274 281 283 283 294 311 314 317 320 318 320 321 316 306 301 305 310 307 305 307
287 291 313 318 294 289 292 293 298 289 275 273 265 258 261 265 267 270 265 255 245 236 243 251 252 262 272 268 256 246 247 261 273 279 289 288 285 289 282 282 279 258 253 249 209 176 210 256 286 293 287 282 277 274 271 268 271 276 276 277 278 278 275 271 272 276 276 278 285 292 292 293 305 316 316 319 320 314 309 304 302 302 305 309 307 303 305 306
271 278 309 313 286 279 282 277 275 275 270 262 261 257 251 254 261 268 268 264 254 241 243 258 261 262 272 269 257 253 259 269 274 275 278 280 282 284 278 279 289 286 274 260 247 234 231 259 282 281 277 278 276 277 279 283 289 287 283 281 277 276 279 280 285 293 296 300 305 305 299 298 312 318 314 312 308 304 303 305 306 304 301 302 302 302 302 301
278 279 264 267 271 264 267 267 261 264 263 253 256 262 260 260 263 264 266 270 265 252 248 261 266 258 259 260 258 270 294 310 306 299 289 283 284 281 275 274 275 274 271 268 271 265 256 269 277 271 275 280 282 288 294 299 294 284 284 291 286 286 294 296 296 297 300 305 305 298 296 302 310 308 304 303 302 302 303 304 303 301 302 304 304 302 301 303
Height
801 799 797 794 792 790 788 786 785 783 782 781 779 779 778 777 776 776 775 774 774 773 773 773 772 772 771 771 771 770 769 768 768 768 765 759 757 758 758 758 758 760 761 761 762 761 760 759 758 755 755 753 752 749 743 740 740 748 758 767 765 755 749 747 745 743 744 742 736 731 728 732 734 724 715 712 712 713 714 711 704 696 692 698 704 710 717 723
800 798 795 794 791 789 787 785 784 782 781 780 779 778 777 776 775 774 774 773 773 772 772 772 771 771 770 771 770 769 769 768 768 765 760 756 756 757 757 758 758 759 760 761 760 758 758 758 755 753 755 755 750 744 744 740 741 752 759 765 761 747 741 739 737 735 736 739 736 731 728 729 732 725 717 721 723 718 719 715 705 701 699 700 704 711 718 721
799 797 794 793 790 788 787 784 783 781 780 779 778 777 776 775 774 773 773 772 771 771 771 770 770 770 770 770 769 769 768 767 766 761 755 754 756 756 756 757 758 758 759 759 758 756 755 753 751 753 755 756 750 743 746 741 741 748 754 764 756 740 739 734 731 733 732 733 735 733 729 729 726 718 717 723 726 723 722 716 709 711 712 713 712 714 719 721
798 796 794 791 789 787 785 783 782 781 779 779 777 776 775 774 773 772 771 771 770 770 769 769 769 769 770 769 769 769 768 768 764 755 753 754 754 755 756 756 757 758 758 757 757 755 753 750 749 751 756 759 749 743 747 743 741 745 751 760 750 739 742 733 728 731 729 730 733 732 729 728 720 714 718 723 729 727 718 708 708 713 714 716 716 716 718 721
798 796 793 791 789 787 785 783 781 780 779 778 776 775 774 772 771 770 770 769 768 768 768 768 768 768 769 768 769 768 770 774 762 752 754 754 754 755 755 756 757 758 758 759 757 754 753 750 749 753 759 761 753 748 747 737 736 747 749 749 743 739 742 733 727 729 728 728 730 730 729 726 718 717 719 721 729 726 713 704 703 705 706 710 715 716 717 720
799 796 793 791 788 787 785 783 781 780 778 776 775 773 772 771 769 769 768 768 767 767 767 767 767 767 768 768 769 768 772 773 757 751 755 753 754 755 755 757 757 759 760 761 757 753 753 751 754 759 761 760 757 752 745 733 733 749 749 742 739 738 739 732 728 728 726 729 731 729 725 720 722 724 717 717 721 713 703 701 701 700 699 703 708 713 716 718
799 796 793 791 788 787 784 783 781 779 777 775 774 772 770 769 768 767 766 766 766 765 766 766 767 767 767 768 769 769 770 763 751 753 755 753 756 755 757 758 758 761 761 761 757 754 754 755 758 759 760 760 756 749 741 734 735 747 750 741 737 734 733 730 727 727 725 728 727 721 720 721 726 725 716 715 712 703 698 697 698 698 696 698 703 710 714 714
799 796 793 791 789 787 785 783 781 778 776 774 772 770 768 767 766 765 764 765 764 764 765 765 766 766 766 768 768 768 765 758 752 754 754 754 756 755 758 759 759 762 761 760 755 752 754 757 758 755 761 759 751 746 739 740 743 746 747 738 733 732 729 726 726 726 725 724 719 717 723 723 720 718 716 713 706 699 697 697 697 698 697 697 702 708 709 710
799 796 793 791 789 787 785 782 780 778 774 771 769 767 767 766 765 764 763 763 763 764 764 764 765 764 766 766 765 767 762 754 753 754 754 755 756 757 759 759 760 761 760 759 753 752 754 756 754 751 758 754 747 748 743 750 753 744 742 738 735 734 729 727 726 725 724 720 717 721 726 720 712 713 716 709 701 698 696 698 697 695 697 697 699 702 703 706
799 796 793 791 788 786 784 782 779 776 773 769 767 766 766 765 764 763 763 763 763 763 763 764 764 764 766 765 766 769 759 752 754 754 754 756 756 758 759 759 760 760 758 755 751 751 751 752 748 743 750 751 750 751 747 752 750 739 739 738 735 733 728 726 726 722 720 717 716 723 726 719 710 714 721 706 695 697 698 699 695 693 695 694 695 697 698 703
799 796 793 791 788 786 783 781 779 775 772 768 766 766 766 765 765 764 763 763 763 763 763 763 763 764 765 764 767 766 755 752 755 754 756 757 757 758 758 759 759 759 756 752 750 749 748 747 742 744 753 753 751 751 747 744 740 738 740 740 736 731 727 724 724 719 717 718 714 717 723 720 714 718 720 703 693 697 699 698 695 695 695 692 693 693 694 699
799 796 793 791 788 786 783 781 778 775 772 769 768 767 767 766 765 764 764 764 763 763 763 763 764 764 764 764 763 759 753 754 755 755 757 756 758 758 758 758 757 756 754 750 748 746 747 745 744 753 756 752 755 757 748 738 738 740 741 747 739 730 727 719 717 716 714 718 711 714 731 729 719 716 708 695 692 697 699 697 695 694 692 690 690 691 692 695
799 796 793 791 788 785 783 780 777 775 772 770 769 768 768 767 765 765 764 764 764 763 763 764 764 764 766 765 757 754 754 754 755 755 757 757 758 758 758 757 756 755 753 751 748 746 748 746 747 753 751 753 759 754 745 738 742 744 741 746 743 739 731 709 707 714 715 718 708 720 747 740 717 707 698 693 693 696 699 697 696 693 690 690 690 690 692 695
800 796 793 790 787 785 782 780 778 775 773 772 770 769 768 767 766 766 764 764 764 764 764 764 764 765 767 762 753 753 754 753 755 755 755 757 756 757 757 756 756 755 753 752 751 748 749 747 748 750 749 753 753 747 747 746 745 746 745 742 740 747 736 708 704 714 720 717 706 723 750 741 719 705 695 692 691 694 699 697 696 696 693 693 692 690 693 698
801 797 793 790 787 784 782 780 777 775 773 772 770 769 768 767 766 765 765 765 764 764 764 764 764 764 765 760 752 753 754 753 753 753 754 756 755 755 755 756 755 754 753 752 751 749 749 748 751 755 753 747 747 753 756 753 745 741 749 748 735 736 733 714 705 709 718 715 706 725 746 737 720 706 694 688 688 694 701 698 696 697 695 694 693 692 698 701
801 798 794 791 787 784 782 779 777 775 773 771 770 769 768 767 766 765 765 764 764 764 764 764 762 762 766 760 752 752 752 751 751 752 754 754 754 752 752 754 753 753 753 751 750 749 747 749 751 753 753 750 752 756 757 757 748 736 743 750 740 735 735 727 713 704 710 715 711 722 738 735 720 707 697 691 690 694 700 699 696 696 695 693 694 696 702 705
802 799 795 792 788 785 782 779 777 775 773 772 770 768 768 767 765 765 765 764 765 763 763 762 757 759 763 755 753 754 750 750 751 752 753 752 752 751 749 751 751 750 749 748 749 748 747 750 752 751 751 754 753 754 764 767 756 743 743 749 745 741 742 740 727 709 706 715 714 713 724 730 720 707 701 694 689 692 698 698 695 695 696 695 694 698 704 708
803 799 796 793 789 786 783 780 777 775 773 771 769 768 767 766 765 765 765 764 764 764 765 761 758 769 769 755 753 753 748 750 752 751 752 752 752 751 750 750 749 748 749 751 749 748 751 750 752 756 753 752 750 754 769 767 756 755 755 755 753 746 744 743 734 717 709 713 714 716 722 722 715 707 701 694 690 694 697 696 694 695 696 696 695 699 705 708
803 799 796 793 790 787 784 781 778 775 773 769 768 766 764 764 764 764 764 764 765 767 769 762 759 770 770 755 749 748 747 750 752 751 750 750 751 751 749 749 748 750 756 759 753 749 751 753 756 761 757 750 745 747 756 753 749 755 754 755 755 750 745 738 728 713 709 718 720 720 724 720 716 711 704 698 692 694 696 694 695 696 694 696 696 698 704 708
803 799 797 794 791 788 785 782 779 776 773 770 767 764 767 770 768 766 764 762 760 758 759 755 752 756 757 751 747 748 750 751 750 749 748 749 750 750 749 749 750 754 759 761 754 743 746 761 764 759 754 745 740 741 744 743 745 749 751 752 750 749 744 731 721 708 704 723 725 715 718 719 716 712 704 699 694 695 696 695 696 695 696 698 699 702 706 710
803 800 797 794 791 789 786 783 780 777 775 773 770 769 775 779 778 777 772 763 754 748 751 750 747 751 752 749 747 746 749 751 748 745 748 748 747 752 753 751 759 762 757 753 750 741 746 765 763 749 743 739 739 741 741 744 745 748 750 751 748 746 740 726 721 713 705 723 728 715 719 720 713 710 703 698 698 697 696 695 696 695 696 700 703 708 710 711
804 801 797 794 791 788 786 783 781 779 776 775 774 774 778 781 781 781 779 773 759 746 747 746 746 750 748 747 747 745 750 753 750 746 746 747 748 755 754 753 762 761 749 745 751 752 754 759 749 735 734 738 741 740 741 745 745 746 745 747 746 739 735 726 717 714 713 726 732 724 727 724 710 705 701 697 696 693 690 690 692 693 695 702 707 710 712 714
806 801 798 794 790 788 785 783 781 779 777 777 777 778 779 780 780 778 780 782 769 750 747 749 750 752 750 749 746 746 752 753 754 750 744 748 750 750 753 756 759 757 751 748 753 758 758 750 735 728 733 741 744 741 742 745 742 742 740 744 744 733 737 739 725 720 721 726 730 726 725 719 706 701 699 695 691 688 687 687 687 689 694 702 708 711 714 718
806 802 799 794 790 788 785 783 780 778 779 778 779 781 781 780 779 779 779 778 771 755 749 749 748 751 753 749 745 748 751 749 752 751 744 749 751 747 751 754 756 758 754 748 748 753 754 742 729 730 736 742 748 746 745 746 743 740 735 737 742 735 738 741 732 728 726 724 722 721 726 719 708 709 704 696 692 690 689 688 689 690 693 701 708 712 715 718
806 802 799 795 792 788 784 783 781 780 779 779 782 782 781 781 778 779 781 780 775 760 751 750 748 751 749 747 746 744 747 749 749 748 743 745 750 752 753 749 754 762 754 746 749 753 750 736 730 738 741 743 750 750 746 743 744 745 735 728 734 737 738 738 735 734 740 740 724 722 746 739 714 711 708 700 699 697 694 693 695 694 695 702 710 714 716 717
806 803 799 796 793 788 784 783 782 782 780 780 784 782 781 781 778 780 783 785 780 766 759 757 755 755 750 749 745 740 753 757 744 741 743 745 746 750 758 752 750 756 748 744 751 752 745 734 731 737 738 743 751 751 743 739 749 756 740 727 732 738 740 740 738 740 750 751 727 720 746 748 724 714 707 701 703 702 699 699 698 697 700 703 708 713 715 718
807 803 800 797 794 790 787 786 785 783 782 784 784 782 782 780 779 780 785 797 791 768 761 759 756 756 752 748 744 750 769 761 744 743 742 745 744 743 759 759 751 750 740 746 762 754 741 738 737 736 739 748 754 753 743 740 757 760 739 732 738 738 740 740 740 745 744 739 729 718 726 740 737 722 705 701 708 708 706 706 703 702 706 709 711 712 713 716
807 804 801 798 795 794 791 790 788 783 786 787 783 784 782 779 781 780 793 816 798 764 761 760 753 752 748 744 745 753 761 753 755 754 738 741 746 745 759 759 754 754 743 755 773 756 741 746 745 742 749 755 753 750 744 745 757 753 737 736 737 736 739 736 736 740 731 730 738 725 718 740 745 722 707 707 713 715 712 711 710 710 712 714 715 715 713 714
807 804 801 798 796 795 792 791 789 786 787 786 784 785 781 780 783 781 799 815 787 760 763 760 752 754 750 748 751 753 751 751 760 753 736 741 744 745 757 753 751 757 749 754 765 754 742 741 739 742 751 754 750 747 744 748 752 742 733 734 732 731 728 727 731 730 724 733 744 731 722 742 748 725 715 720 721 720 715 712 715 718 718 717 717 717 716 716
807 804 802 798 796 794 792 790 789 788 787 785 785 783 780 783 785 794 812 808 779 766 764 758 758 760 757 757 757 755 755 755 754 747 743 746 743 744 748 743 746 756 754 751 752 747 736 727 729 740 746 745 746 746 742 743 740 731 731 735 734 730 724 726 726 723 736 749 742 728 719 734 749 733 718 722 723 718 715 717 721 723 722 719 718 719 718 719
807 804 802 799 797 796 793 790 788 788 787 785 785 781 783 786 786 804 813 789 773 772 764 763 766 761 762 767 765 760 758 758 755 754 754 750 749 751 753 753 756 762 763 757 751 745 735 730 733 740 741 740 746 748 741 736 733 735 739 741 745 743 736 740 735 732 758 763 737 720 715 729 750 738 720 721 719 715 719 723 726 727 725 722 721 722 721 723
807 804 801 799 798 796 794 791 789 789 787 785 784 781 787 794 794 800 793 774 780 784 772 772 771 765 768 769 767 765 764 763 759 759 761 760 759 760 765 772 773 779 782 772 763 756 746 737 735 738 740 742 751 755 749 742 740 746 747 748 761 765 761 769 765 758 766 756 730 722 726 740 746 729 718 721 720 720 723 724 727 728 727 725 725 726 725 726
807 803 801 799 797 794 793 791 789 788 787 785 785 782 789 804 803 792 780 778 788 783 772 773 770 768 772 771 770 767 766 767 763 761 762 762 765 766 769 772 772 782 788 779 774 771 762 748 740 743 745 744 751 759 763 758 754 756 753 756 770 775 782 794 783 770 768 752 732 728 738 751 746 725 717 722 724 724 724 725 727 728 729 729 729 730 731 731
806 803 801 798 795 793 791 790 788 788 786 785 786 787 797 807 799 785 781 781 781 774 771 773 772 772 773 773 773 769 770 771 764 765 766 763 768 771 771 772 772 777 780 780 780 780 783 774 758 756 755 749 751 755 760 761 759 756 748 751 761 764 781 795 784 778 777 763 748 745 751 759 752 731 717 719 724 723 725 727 728 729 730 731 731 733 735 734
806 803 800 796 794 792 790 790 789 788 787 786 787 793 802 804 792 786 789 784 779 778 776 772 773 776 773 770 771 769 775 777 766 766 769 768 774 776 775 777 778 779 783 790 788 782 787 779 756 754 755 750 753 751 749 759 764 753 743 752 757 753 764 777 773 769 770 770 766 759 757 748 735 724 717 719 724 725 728 729 729 732 732 733 737 738 738 740
806 802 800 797 794 792 791 790 788 787 787 788 794 797 796 795 791 790 791 786 783 785 784 779 777 780 777 770 770 771 773 775 771 771 771 770 774 777 778 781 780 781 786 795 795 788 792 783 757 755 757 749 752 752 748 760 768 758 756 761 751 741 751 768 773 762 763 780 774 756 754 740 726 729 728 728 733 732 732 734 737 742 741 743 748 748 747 748
807 803 801 797 794 793 791 789 788 787 785 790 801 801 790 786 787 787 787 786 784 783 789 792 785 785 785 778 773 773 774 774 772 776 776 773 777 779 779 781 782 783 784 790 794 788 793 793 769 762 767 754 748 752 749 748 754 762 768 757 743 745 748 758 776 775 775 786 771 754 758 752 746 749 739 734 739 739 739 742 747 750 751 753 755 754 754 753
809 805 801 797 795 792 789 788 786 785 786 792 800 798 788 785 786 786 786 787 786 784 791 796 790 786 790 788 782 776 778 782 778 780 780 776 782 784 780 782 783 782 782 787 793 787 789 801 784 765 769 761 749 757 760 745 737 749 755 745 749 768 767 762 776 785 786 787 773 758 755 752 752 747 737 738 743 745 748 750 752 755 757 759 759 758 757 755
811 807 801 795 794 792 788 787 784 784 791 796 798 794 789 787 786 786 787 788 788 789 793 794 791 789 790 790 789 782 783 788 785 785 785 781 784 785 781 784 784 782 783 785 791 788 787 803 799 772 765 767 761 765 770 757 742 741 746 746 750 762 765 764 767 772 781 786 778 767 760 753 742 730 734 747 748 751 757 757 758 760 760 762 763 762 761 759
812 810 803 794 794 792 788 786 783 786 792 795 794 791 788 788 787 785 786 788 790 791 793 794 793 795 794 791 790 787 787 791 788 788 787 779 782 786 784 785 786 784 786 784 786 786 784 797 804 784 771 777 776 767 763 762 758 756 761 764 761 758 757 760 759 756 766 779 781 779 775 757 733 722 734 749 752 755 759 760 763 763 762 764 765 765 765 764
815 813 802 792 794 792 788 788 787 788 790 791 793 792 791 793 791 786 785 787 789 788 788 793 795 796 798 796 793 791 793 794 789 788 785 777 780 788 786 786 787 787 789 788 786 789 790 796 804 798 788 786 777 759 752 755 757 762 768 768 767 765 765 776 779 762 757 769 773 778 781 758 733 728 734 744 753 756 757 762 764 764 765 766 765 766 766 765
818 814 801 793 796 793 792 794 789 788 792 794 794 793 793 795 792 789 787 786 788 786 784 790 794 795 798 797 795 795 796 798 792 788 786 779 778 786 786 786 788 787 790 792 788 791 796 800 806 804 793 783 769 755 751 751 752 760 766 762 760 763 766 782 791 776 768 772 768 775 781 759 736 734 737 743 753 755 757 763 764 765 767 767 767 766 765 764
818 813 801 796 797 793 797 802 793 789 793 793 792 791 791 793 793 791 789 787 789 789 789 791 792 793 796 794 796 799 798 800 796 788 785 780 778 784 786 786 789 788 790 792 790 793 798 800 804 801 786 772 760 749 744 745 751 761 764 759 759 763 764 771 777 776 779 782 778 786 788 762 741 738 738 742 747 749 753 761 765 767 767 767 767 765 764 763
821 814 802 798 797 795 800 805 800 796 794 793 794 792 790 792 793 793 791 791 791 792 795 795 791 792 793 792 796 798 799 804 799 787 784 783 782 785 785 786 791 791 791 793 793 798 803 801 803 808 802 790 778 764 755 753 758 765 767 763 761 761 764 769 771 776 785 783 780 789 787 763 745 741 740 741 742 743 747 755 763 766 765 765 764 763 763 762
822 814 803 795 793 795 798 798 798 800 797 795 798 796 792 792 790 791 793 792 790 792 797 795 790 789 791 792 796 797 797 803 802 793 787 785 783 783 784 788 791 790 792 795 794 799 807 805 806 813 816 811 802 789 778 774 773 772 771 768 766 766 771 776 780 787 791 783 776 780 778 761 746 743 745 745 746 748 749 752 757 759 761 763 762 761 761 760
825 820 811 800 793 794 795 793 795 801 798 799 803 799 795 795 790 788 792 793 791 792 795 794 790 791 793 794 799 801 797 796 797 796 793 789 785 783 784 787 788 789 794 798 797 800 807 806 803 805 806 803 798 787 778 779 783 781 777 774 773 773 774 778 786 790 787 783 778 773 769 763 756 754 754 752 751 752 752 753 755 754 756 761 762 760 758 758
827 823 814 810 807 802 797 791 791 796 797 801 806 801 796 796 792 788 792 794 792 792 795 794 792 795 797 797 801 803 799 795 793 793 793 791 786 783 782 782 785 791 794 795 796 801 808 807 801 799 798 793 789 784 779 781 784 783 781 779 778 777 776 782 788 785 781 787 785 770 765 770 767 761 758 755 753 755 755 755 756 757 758 761 760 758 757 757
826 820 811 813 818 813 806 799 794 796 798 800 802 800 799 799 796 794 793 792 792 793 797 799 795 794 794 795 799 804 803 801 799 795 793 791 787 786 785 782 784 791 793 792 792 796 807 809 801 798 798 791 787 785 782 782 783 781 780 780 778 778 778 781 782 777 778 785 782 770 768 772 766 760 758 756 756 759 759 757 757 760 760 759 757 758 758 757
825 821 813 813 817 815 811 806 802 803 803 803 803 801 801 801 798 794 789 790 794 794 796 802 799 792 789 788 793 801 804 806 806 800 795 794 793 793 796 794 789 787 789 792 791 793 804 808 801 799 800 794 790 787 783 783 783 779 777 774 772 772 773 775 775 773 773 775 771 767 768 766 761 760 760 758 759 761 761 760 761 760 759 756 757 758 757 756
827 824 820 819 817 814 812 809 807 807 804 803 805 802 799 799 797 792 785 787 796 796 793 797 796 790 788 787 789 796 797 798 803 800 797 799 801 800 802 800 793 788 787 791 792 794 804 808 801 800 804 799 792 786 782 780 778 775 772 769 768 770 771 771 771 770 771 773 769 768 771 767 761 759 759 760 762 762 762 762 761 759 758 757 757 756 755 755
828 824 824 827 824 817 815 811 808 808 805 803 803 799 795 795 792 789 784 779 785 792 792 792 791 789 790 789 789 792 790 790 795 794 793 798 800 800 799 795 794 795 793 792 794 796 802 806 801 803 809 802 789 784 780 775 775 777 776 772 771 772 772 770 770 770 774 777 776 777 777 772 764 762 763 763 763 763 763 762 760 759 757 755 755 755 754 752
828 824 823 828 827 820 816 812 808 808 805 800 796 793 791 788 782 783 787 781 778 784 787 788 790 792 794 794 793 792 790 791 793 791 792 795 794 795 796 793 793 797 798 797 798 798 800 804 804 806 809 800 789 785 781 780 788 789 779 772 770 770 771 771 771 771 772 775 781 783 778 772 767 766 767 765 764 763 762 760 759 757 753 752 752 752 751 750